This is the latest recevied weather packets stored in our database for station/object N0HOT. If no packets are shown the sender has not sent any weather packets the latest 10 day(s).
| Time | Temp. | Humidity | Pressure | Rain* | Wind** | Luminosity | Snow |
|---|---|---|---|---|---|---|---|
| 1777280453 | 13.33° C | 69% | 1008 hPa | 0 mm | - | 0 W/m² | - |
| 1777280150 | 13.33° C | 69% | 1008 hPa | 0 mm | - | 0 W/m² | - |
| 1777279846 | 13.33° C | 69% | 1008 hPa | 0 mm | - | 0 W/m² | - |
| 1777279240 | 13.33° C | 69% | 1008 hPa | 0 mm | - | 0 W/m² | - |
| 1777278938 | 13.33° C | 68% | 1008 hPa | 0 mm | - | 0 W/m² | - |
| 1777278634 | 13.33° C | 69% | 1008 hPa | 0 mm | - | 0 W/m² | - |
| 1777278331 | 13.33° C | 70% | 1007.7 hPa | 0 mm | - | 0 W/m² | - |
| 1777278027 | 13.33° C | 70% | 1008 hPa | 0 mm | - | 0 W/m² | - |
| 1777277725 | 13.33° C | 71% | 1008 hPa | 0 mm | - | 0 W/m² | - |
| 1777277421 | 13.33° C | 71% | 1008.3 hPa | 0 mm | - | 0 W/m² | - |
| 1777277116 | 13.33° C | 69% | 1008.3 hPa | 0 mm | - | 0 W/m² | - |
| 1777276811 | 13.33° C | 70% | 1008.3 hPa | 0 mm | - | 0 W/m² | - |
| 1777276204 | 12.78° C | 70% | 1008.7 hPa | 0 mm | - | 0 W/m² | - |
| 1777275599 | 13.33° C | 73% | 1008.7 hPa | 0 mm | - | 0 W/m² | - |
| 1777275296 | 13.33° C | 73% | 1009 hPa | 0 mm | - | 0 W/m² | - |
| 1777274991 | 13.89° C | 71% | 1009.4 hPa | 0 mm | - | 0 W/m² | - |
| 1777274688 | 13.89° C | 72% | 1009.4 hPa | 0 mm | - | 0 W/m² | - |
| 1777274385 | 13.89° C | 71% | 1009.8 hPa | 0 mm | - | 0 W/m² | - |
| 1777274084 | 14.44° C | 70% | 1009.8 hPa | 0 mm | - | 0 W/m² | - |
| 1777273782 | 14.44° C | 67% | 1009.8 hPa | 0 mm | - | 0 W/m² | - |
| 1777273479 | 14.44° C | 64% | 1010.1 hPa | 0 mm | - | 0 W/m² | - |
| 1777273178 | 15° C | 63% | 1009.8 hPa | 0 mm | - | 0 W/m² | - |
| 1777272874 | 15° C | 63% | 1010.1 hPa | 0 mm | - | 0 W/m² | - |
| 1777272571 | 15° C | 62% | 1010.1 hPa | 0 mm | - | 0 W/m² | - |
| 1777272269 | 15.56° C | 63% | 1010.1 hPa | 0 mm | - | 0 W/m² | - |
* Rain latest hour (hover to see other rain measurements)
** Current wind speed in m/s (hover to see current wind gust speed)